Time,TemperatureF,DewpointF,PressureIn,WindDirection,WindDirectionDegrees,WindSpeedMPH,WindSpeedGustMPH,Humidity,HourlyPrecipIn,Conditions,Clouds,dailyrainin,SoftwareType,DateUTC
2013-02-23 17:19:00,20.4,16.0,29.61,SSE,158,5.1,5.1,83,0.00,,,0.00,WUHU216HW,2013-02-23 22:19:00,
2013-02-23 17:24:00,20.4,16.0,29.61,South,180,4.6,5.1,83,0.00,,,0.02,WUHU216HW,2013-02-23 22:24:00,
2013-02-23 17:29:00,20.4,16.0,29.61,SSW,203,6.2,6.2,83,0.00,,,0.02,WUHU216HW,2013-02-23 22:29:00,
2013-02-23 17:34:00,37.4,32.9,29.15,SW,225,4.9,6.2,84,0.00,,,0.02,WUHU216HW,2013-02-23 22:34:00,
2013-02-23 17:39:00,37.4,32.9,29.15,SW,225,4.2,7.1,84,0.00,,,0.02,WUHU216HW,2013-02-23 22:39:00,
2013-02-23 17:44:00,37.2,32.7,29.15,SSW,203,6.0,7.1,84,0.00,,,0.02,WUHU216HW,2013-02-23 22:44:00,
2013-02-23 17:49:00,37.2,32.7,29.15,SSW,203,5.1,6.0,84,0.00,,,0.02,WUHU216HW,2013-02-23 22:49:00,
2013-02-23 17:54:00,37.2,32.7,29.14,SSW,203,4.4,6.0,84,0.00,,,0.02,WUHU216HW,2013-02-23 22:54:00,
2013-02-23 17:59:00,37.2,32.7,29.14,South,180,5.1,6.0,84,0.00,,,0.02,WUHU216HW,2013-02-23 22:59:00,
2013-02-23 18:04:00,37.2,32.7,29.14,South,180,4.4,6.7,84,0.00,,,0.02,WUHU216HW,2013-02-23 23:04:00,
2013-02-23 18:09:00,37.2,32.7,29.14,South,180,2.2,6.7,84,0.00,,,0.02,WUHU216HW,2013-02-23 23:09:00,
2013-02-23 18:14:00,37.0,32.6,29.14,South,180,5.3,6.7,84,0.00,,,0.02,WUHU216HW,2013-02-23 23:14:00,
2013-02-23 18:19:00,37.0,32.9,29.14,South,180,2.9,6.7,85,0.00,,,0.02,WUHU216HW,2013-02-23 23:19:00,
2013-02-23 18:24:00,36.8,32.7,29.14,South,180,2.9,5.3,85,0.00,,,0.02,WUHU216HW,2013-02-23 23:24:00,
2013-02-23 18:29:00,36.8,32.7,29.14,South,180,5.1,5.3,85,0.00,,,0.02,WUHU216HW,2013-02-23 23:29:00,
2013-02-23 18:34:00,36.6,32.5,29.15,South,180,3.5,6.0,85,0.00,,,0.02,WUHU216HW,2013-02-23 23:34:00,
2013-02-23 18:39:00,36.6,32.5,29.15,South,180,5.1,6.0,85,0.00,,,0.02,WUHU216HW,2013-02-23 23:39:00,
2013-02-23 18:45:00,36.5,32.3,29.15,South,180,4.4,5.1,85,0.00,,,0.02,WUHU216HW,2013-02-23 23:45:00,
2013-02-23 18:50:00,36.3,32.1,29.14,South,180,4.0,5.5,85,0.00,,,0.02,WUHU216HW,2013-02-23 23:50:00,
2013-02-23 18:55:00,36.3,32.1,29.14,South,180,5.1,5.5,85,0.00,,,0.02,WUHU216HW,2013-02-23 23:55:00,
2013-02-23 19:00:00,36.3,32.4,29.14,South,180,3.5,5.3,86,0.00,,,0.02,WUHU216HW,2013-02-24 00:00:00,
2013-02-23 19:05:00,36.3,32.4,29.14,South,180,4.4,5.1,86,0.00,,,0.02,WUHU216HW,2013-02-24 00:05:00,
2013-02-23 19:10:00,36.3,32.4,29.14,SSW,203,2.4,4.4,86,0.00,,,0.02,WUHU216HW,2013-02-24 00:10:00,
2013-02-23 19:15:00,36.3,32.4,29.14,South,180,3.8,4.2,86,0.00,,,0.02,WUHU216HW,2013-02-24 00:15:00,
2013-02-23 19:21:00,36.3,32.4,29.15,SSW,203,4.6,4.6,86,0.00,,,0.02,WUHU216HW,2013-02-24 00:21:00,
2013-02-23 19:26:00,36.3,32.4,29.15,SW,225,3.3,6.0,86,0.00,,,0.02,WUHU216HW,2013-02-24 00:26:00,
2013-02-23 19:31:00,36.5,32.6,29.15,SSW,203,5.5,6.0,86,0.00,,,0.02,WUHU216HW,2013-02-24 00:31:00,
2013-02-23 19:36:00,36.5,32.6,29.15,SSW,203,3.8,5.5,86,0.00,,,0.02,WUHU216HW,2013-02-24 00:36:00,
2013-02-23 19:41:00,36.6,32.8,29.15,SW,225,4.6,5.5,86,0.00,,,0.02,WUHU216HW,2013-02-24 00:41:00,
2013-02-23 19:46:00,36.8,33.0,29.15,SW,225,5.8,6.7,86,0.00,,,0.02,WUHU216HW,2013-02-24 00:46:00,
2013-02-23 19:51:00,37.0,32.9,29.16,SW,225,3.8,6.9,85,0.00,,,0.02,WUHU216HW,2013-02-24 00:51:00,
2013-02-23 19:56:00,37.0,32.9,29.16,SSW,203,5.8,6.9,85,0.00,,,0.02,WUHU216HW,2013-02-24 00:56:00,
2013-02-23 20:02:00,37.0,32.9,29.15,SW,225,5.3,6.0,85,0.00,,,0.02,WUHU216HW,2013-02-24 01:02:00,
2013-02-23 20:07:00,37.0,32.9,29.15,SW,225,5.8,6.0,85,0.00,,,0.02,WUHU216HW,2013-02-24 01:07:00,
2013-02-23 20:12:00,37.2,33.0,29.16,SW,225,2.9,6.2,85,0.00,,,0.02,WUHU216HW,2013-02-24 01:12:00,
2013-02-23 20:17:00,37.0,32.6,29.15,SSW,203,2.2,6.2,84,0.00,,,0.02,WUHU216HW,2013-02-24 01:17:00,
2013-02-23 20:22:00,37.0,32.6,29.15,SSW,203,0.0,2.9,84,0.00,,,0.02,WUHU216HW,2013-02-24 01:22:00,
2013-02-23 20:26:00,37.0,32.6,29.14,SSW,203,0.0,2.2,84,0.00,,,0.02,WUHU216HW,2013-02-24 01:26:00,